Wind_Speed
16 16 16 16 16 17 17 18 18 18 18 19 19 20 21 21 22 23 23 23 24 24 24 25 25 25 25 25 25 25 26 27 28 29 29 30 32 33 35 36 38 39 40 42 43 45 46 47 47 48 50 51 53 53 53 53 53 52 52 52 52 54 54 54 55 57 56 57 56 56 58 58 58 58 57 58 58 58 55 55 54 52 52 49 49 49 48 49
17 17 17 17 17 18 18 18 18 19 19 20 21 22 22 23 23 23 23 24 24 24 25 25 25 26 26 27 27 28 28 29 30 31 31 32 33 35 37 39 40 41 41 43 44 45 46 47 48 49 50 51 53 54 55 55 55 54 54 53 53 53 53 54 57 58 58 60 58 57 60 60 60 59 59 59 59 58 57 57 56 55 54 51 50 50 50 50
17 17 17 18 18 18 18 19 19 20 21 21 22 23 23 24 23 23 23 24 24 25 26 27 27 28 29 29 30 30 30 31 32 33 33 34 35 36 38 40 42 43 44 45 47 47 48 49 49 50 51 52 53 54 55 56 57 57 56 56 54 53 54 55 57 58 59 61 60 60 61 61 62 62 61 60 60 59 59 59 58 58 56 53 51 51 51 50
18 18 18 19 19 19 19 19 20 21 22 22 23 24 24 24 24 24 24 24 25 26 28 29 30 30 31 32 33 33 34 36 37 37 36 37 38 38 40 41 43 44 46 47 49 50 50 51 51 52 53 53 53 53 54 55 56 58 58 58 56 55 56 56 57 58 59 60 61 62 62 62 63 63 63 62 61 60 60 60 60 60 58 55 54 53 52 52
19 19 19 19 19 19 19 20 21 22 22 23 24 24 24 24 24 24 24 25 26 27 29 30 31 33 34 35 36 38 39 41 41 40 40 40 41 42 42 43 44 46 47 49 50 52 53 53 54 54 54 54 53 53 53 54 56 57 58 58 58 59 58 57 58 59 59 60 61 63 63 63 64 64 64 64 63 63 62 61 61 62 60 58 56 54 54 53
20 20 20 20 20 20 20 21 21 22 23 24 25 25 25 25 25 25 25 26 27 28 30 31 32 34 35 37 38 40 40 41 42 42 42 43 44 45 45 46 46 47 49 50 52 53 54 55 56 56 55 54 53 53 53 54 56 57 57 58 59 60 61 59 59 59 59 60 61 62 63 64 65 65 65 65 65 65 65 64 64 64 62 61 58 57 56 55
22 21 21 21 21 21 20 21 22 23 24 25 26 26 26 26 26 26 27 27 28 30 31 33 34 35 36 38 39 40 40 41 42 42 43 45 46 47 48 48 49 49 51 52 54 55 56 57 57 57 55 54 53 53 54 55 57 58 57 58 60 61 62 61 61 61 60 61 61 61 62 64 65 65 65 65 66 67 68 68 67 66 64 63 61 59 58 57
22 22 22 22 21 22 22 22 23 23 24 25 26 26 26 26 27 27 28 28 29 30 32 33 35 36 37 38 39 40 40 41 42 43 44 46 47 48 49 50 51 52 53 54 55 56 57 58 58 57 55 54 55 55 56 57 58 58 58 59 60 61 62 62 62 62 61 61 61 61 62 64 65 65 65 66 67 68 69 71 70 68 67 65 64 62 60 59
22 22 22 22 22 22 23 23 24 24 25 26 26 26 27 27 28 28 29 29 30 30 32 33 34 35 37 38 39 40 41 41 42 44 45 47 48 49 50 51 52 53 54 55 56 57 58 59 58 56 56 56 56 56 57 57 57 58 58 59 60 61 62 62 63 62 62 62 62 62 63 64 65 65 67 69 69 68 69 71 71 71 70 69 67 65 63 61
22 23 23 22 22 23 24 25 25 25 26 26 26 27 27 28 29 30 30 31 31 32 33 33 34 35 36 37 38 40 41 42 43 45 46 48 49 50 51 52 53 54 54 55 56 58 59 58 57 56 57 57 57 57 56 56 56 57 57 58 59 60 61 61 62 62 62 63 63 64 64 65 65 66 69 70 69 69 70 72 72 71 72 72 70 68 66 64
22 23 23 23 23 23 25 26 26 26 26 27 27 27 29 30 31 31 32 33 34 34 35 35 36 36 37 37 38 39 41 42 43 45 46 48 50 51 53 54 54 55 55 56 57 58 58 57 56 57 57 57 57 56 55 55 55 56 57 57 58 59 60 60 61 62 62 63 63 64 65 65 65 67 69 70 69 70 71 72 72 71 72 73 73 72 69 67
23 23 23 24 24 24 25 26 27 27 27 28 28 29 30 32 33 34 35 36 37 37 37 38 39 39 38 38 39 40 42 43 44 45 47 49 51 53 54 55 56 56 57 57 57 57 56 56 57 57 57 56 55 55 55 55 55 55 56 56 57 58 58 58 60 61 62 62 62 63 64 65 66 68 69 69 69 70 71 72 73 72 72 73 74 74 72 70
24 23 23 24 26 26 27 27 28 28 28 29 30 31 33 34 36 37 38 39 40 40 40 41 42 42 41 41 42 42 43 44 45 47 49 51 53 54 56 56 56 56 56 55 55 55 55 56 57 56 55 54 55 54 54 53 53 53 52 52 53 53 54 55 58 60 60 61 61 62 64 66 67 68 68 69 69 70 71 73 73 73 73 73 73 74 75 73
24 24 24 25 27 28 28 29 29 30 30 31 32 33 35 36 38 39 40 41 42 43 43 43 44 44 45 45 46 46 46 47 48 50 51 53 54 55 55 54 53 53 53 53 54 55 56 56 56 55 54 54 53 52 51 51 50 50 50 50 50 50 50 51 53 55 57 59 59 61 64 65 66 67 67 69 70 70 71 73 73 73 73 73 74 74 75 75
25 25 25 26 28 29 30 30 30 31 32 32 33 35 37 38 39 41 42 43 44 44 45 46 46 47 48 49 49 49 50 50 50 51 51 52 52 52 51 50 50 50 51 52 54 55 55 54 54 53 53 51 49 49 48 48 48 48 48 49 48 47 48 49 50 51 53 55 56 59 62 64 64 65 66 68 70 70 71 72 73 74 74 74 75 74 75 76
27 27 28 28 29 30 31 32 32 32 32 33 35 37 39 40 41 43 44 45 45 46 46 47 48 49 50 51 51 50 49 48 48 48 48 48 47 47 46 46 47 49 51 52 53 53 53 52 52 51 49 47 46 46 46 45 45 44 44 44 44 44 45 47 48 49 51 52 54 56 59 61 62 63 65 67 69 70 71 73 73 74 74 75 75 76 76 76
29 30 30 31 31 32 33 34 34 34 34 35 36 38 40 42 43 44 45 46 46 46 48 49 49 51 51 51 50 47 46 45 45 45 44 43 42 42 43 44 47 49 51 52 52 51 51 50 49 46 45 45 45 44 42 41 40 39 39 39 39 39 41 42 44 46 48 50 52 53 56 58 59 61 63 66 68 70 71 73 74 75 75 75 75 76 77 77
32 32 33 33 34 34 35 36 36 37 37 38 38 40 41 42 43 44 46 47 47 47 49 50 51 52 52 49 46 44 43 43 43 42 42 41 40 42 43 46 48 49 50 51 50 49 49 47 45 44 44 43 42 40 38 37 36 35 35 35 35 36 37 39 40 42 44 47 49 52 54 56 57 58 60 63 65 68 71 73 74 75 76 76 76 77 78 78
34 34 35 35 36 36 37 37 38 38 39 40 40 41 42 43 44 45 46 47 47 48 50 51 52 51 49 45 43 42 42 42 43 42 42 42 42 44 45 46 48 48 49 49 48 47 46 45 44 44 43 40 38 36 35 33 32 32 31 31 31 32 33 35 36 39 41 43 46 48 51 54 56 57 58 60 62 65 69 71 73 75 76 77 77 77 78 79
35 35 36 37 37 38 38 38 39 39 40 41 41 41 42 43 44 45 46 46 48 49 50 51 51 49 45 43 43 43 43 43 43 43 43 43 44 45 46 47 48 48 47 46 45 45 44 44 44 43 41 38 35 33 31 29 28 27 27 27 27 28 29 31 33 35 37 39 42 44 46 50 52 55 57 58 60 62 65 67 70 72 74 76 77 78 79 80
36 37 38 38 39 39 39 39 40 41 41 42 42 42 42 42 43 44 45 46 48 49 49 50 49 46 44 43 43 43 44 44 44 44 44 45 45 46 47 47 47 47 45 44 43 43 43 44 44 42 39 35 31 28 26 24 23 23 22 22 22 22 23 26 28 30 33 35 38 40 42 46 49 51 53 54 56 58 61 63 65 68 71 73 76 77 79 79
38 38 39 40 40 40 40 40 40 41 42 42 43 42 42 43 43 43 44 46 48 48 48 48 47 45 44 44 44 44 45 45 44 44 45 45 46 47 47 47 47 46 44 42 41 41 43 43 42 39 36 32 27 24 21 20 18 17 17 17 17 17 17 19 21 24 26 29 32 35 39 43 45 46 47 49 50 53 56 59 62 64 67 70 73 76 78 80
38 39 39 40 41 40 40 40 40 41 41 42 42 42 42 42 42 43 44 46 47 47 47 47 46 45 45 45 45 45 46 45 44 44 45 45 46 46 47 46 46 44 42 40 40 41 41 41 39 37 32 28 23 20 18 16 14 13 12 11 11 12 12 13 15 17 19 22 25 29 33 37 40 40 41 43 44 46 50 54 58 62 65 68 71 75 77 80
37 38 40 41 41 40 39 39 40 40 40 41 41 41 41 41 41 43 44 45 45 46 46 46 46 46 45 45 46 46 46 46 44 44 45 45 45 46 46 45 44 43 40 39 39 40 39 38 36 33 28 23 19 16 15 13 12 10 9 7 7 8 9 9 11 12 14 17 20 24 28 31 32 33 34 37 38 41 45 49 54 59 63 67 70 74 77 80
38 39 41 41 41 40 39 38 39 39 40 41 40 40 40 40 40 41 42 43 44 45 45 46 46 46 46 47 47 47 47 46 45 44 44 44 44 44 44 43 43 42 39 38 39 39 36 34 32 29 24 19 15 13 12 11 10 10 9 8 7 7 8 8 8 8 8 12 17 21 24 25 25 24 25 29 33 37 42 46 50 55 60 64 68 72 76 79
40 41 42 42 40 39 38 38 38 39 40 39 38 37 36 37 38 39 40 42 44 44 45 45 46 47 47 47 48 48 47 46 45 44 44 44 44 43 42 42 42 40 37 37 39 37 33 30 28 23 19 15 12 9 8 7 8 7 7 7 6 7 7 7 7 6 5 8 13 17 21 23 21 18 19 22 27 32 37 42 47 50 55 60 65 69 74 78
42 42 42 40 39 37 36 36 35 35 35 34 33 33 34 35 37 39 40 41 43 44 45 46 47 48 48 47 48 48 47 46 44 44 43 43 43 42 41 41 41 39 36 37 38 36 31 27 24 18 15 13 10 7 5 4 4 4 5 6 5 5 6 7 6 5 4 6 9 13 16 20 20 17 17 19 22 26 32 37 42 45 50 55 61 66 71 75
42 40 38 37 35 34 32 31 30 30 30 31 32 33 34 36 37 39 41 42 44 45 46 46 47 49 49 48 47 47 46 45 44 43 43 43 42 40 39 40 40 37 36 36 36 34 29 25 21 15 12 11 9 7 4 3 4 6 6 7 7 7 8 8 8 6 6 5 5 7 11 14 16 15 14 15 18 22 26 32 36 40 45 51 57 62 68 73
38 36 34 33 32 31 30 29 29 29 30 31 33 34 36 37 39 41 43 44 46 47 47 47 48 49 49 49 47 46 45 44 43 42 42 41 40 38 38 38 38 36 36 35 35 32 26 23 19 13 10 10 9 7 5 4 4 6 8 9 10 11 12 12 12 11 11 10 8 7 7 9 10 10 10 10 12 16 20 26 31 35 39 45 51 57 64 69
34 32 32 31 31 31 31 31 31 31 32 33 35 37 39 41 43 44 46 47 48 48 48 48 48 49 49 48 47 45 44 43 43 42 41 40 38 36 36 36 36 36 36 34 33 29 24 20 16 11 8 7 6 5 4 3 2 6 9 11 13 14 15 14 14 14 14 14 13 12 11 10 9 9 9 8 8 11 14 19 26 30 33 38 44 51 58 65
31 31 30 30 30 31 32 32 33 34 35 36 38 40 42 44 46 47 48 49 49 49 49 48 48 48 47 47 45 44 43 42 42 41 39 37 35 34 34 34 35 36 35 33 31 27 22 18 14 9 6 5 3 2 1 2 3 5 8 11 13 15 16 15 15 15 16 16 16 15 14 14 12 10 10 8 8 8 10 14 19 25 29 33 37 44 51 59
30 30 29 29 30 31 32 34 35 36 37 38 40 42 44 46 48 49 49 50 50 50 49 48 47 46 46 45 43 42 42 41 40 39 37 34 33 32 32 33 34 35 34 32 29 26 21 16 12 9 6 4 2 1 0 2 5 3 4 9 13 14 16 15 15 15 15 16 18 17 15 16 15 14 12 10 9 8 8 10 14 18 24 29 33 38 45 53
29 29 29 29 30 32 33 34 36 38 39 40 42 44 46 48 50 51 51 50 50 50 49 47 46 45 44 42 41 40 40 39 38 36 33 31 31 30 30 31 32 33 33 32 29 25 21 16 11 8 4 2 1 1 1 1 4 3 4 9 13 15 16 15 15 14 14 16 18 18 18 19 19 17 16 14 12 10 7 7 9 12 17 23 28 33 39 47
29 29 29 30 31 33 34 35 37 39 40 42 44 46 48 50 52 52 51 51 50 50 49 47 46 44 42 41 39 38 37 36 34 32 29 29 29 29 29 30 31 31 32 31 28 24 20 15 10 6 3 3 2 1 4 4 2 5 6 10 12 14 16 16 15 15 15 15 15 18 20 21 21 19 18 16 15 13 10 8 8 9 12 17 22 27 34 42
29 29 30 31 32 33 34 36 37 39 41 43 45 48 50 53 54 53 52 51 50 50 49 47 44 42 40 38 37 36 34 32 30 27 26 27 27 27 27 28 29 30 30 30 28 24 21 16 10 6 4 4 3 2 3 3 2 5 6 8 9 11 14 15 15 15 15 14 16 20 23 23 23 23 21 18 17 16 13 11 9 9 11 13 17 22 28 36
30 29 30 31 33 34 35 36 38 39 41 44 46 49 52 55 55 53 51 50 50 49 48 45 42 39 36 35 33 31 29 27 25 24 24 26 26 25 26 26 27 28 29 29 27 24 21 16 10 7 5 5 4 4 4 2 1 3 5 7 8 10 12 12 13 15 17 17 19 23 24 25 26 26 25 23 20 18 17 16 14 13 13 14 16 20 25 31
29 30 31 32 33 34 35 37 39 40 42 44 47 50 54 56 56 53 51 50 49 47 44 41 37 34 32 30 28 26 24 22 22 22 24 25 24 24 25 25 26 26 28 28 26 23 20 16 11 8 7 7 6 5 5 3 1 2 3 5 7 9 11 11 12 14 17 19 21 23 24 26 28 29 30 28 24 21 20 20 19 19 18 16 17 20 24 29
29 30 32 33 34 34 36 38 39 41 43 45 47 51 55 58 57 53 51 50 47 44 40 36 33 29 26 24 22 20 19 19 20 22 24 24 23 23 24 24 24 25 26 28 27 23 19 16 11 8 8 9 8 7 6 4 3 3 4 4 4 7 9 11 12 13 14 18 20 22 24 26 27 29 31 32 31 29 29 28 26 24 20 17 17 19 23 28
29 31 33 34 35 35 36 38 40 42 43 45 48 52 56 59 58 54 51 50 46 41 37 32 28 25 21 19 17 16 17 18 20 22 24 24 23 22 24 24 24 24 25 27 27 24 20 16 12 8 9 10 10 10 8 6 5 5 6 5 3 4 7 10 12 12 13 15 19 20 22 23 24 26 28 30 31 32 32 33 30 26 23 19 16 17 21 27
29 31 33 34 35 36 37 38 40 42 44 46 49 52 56 60 60 55 52 50 46 41 36 31 25 21 18 16 15 15 16 18 20 23 25 25 23 22 23 24 24 23 24 25 26 25 22 17 13 9 9 10 11 11 9 7 6 7 7 7 5 4 5 9 11 12 11 12 16 18 19 20 22 23 25 27 28 29 29 30 28 26 26 24 19 16 17 24
28 31 33 34 35 36 37 39 41 43 45 47 49 52 56 61 62 58 54 51 47 42 36 30 24 19 16 14 14 15 17 19 21 24 25 25 24 22 22 23 23 23 24 25 25 25 23 19 15 11 9 11 12 12 11 10 8 8 7 7 7 4 4 7 9 10 10 9 12 16 18 19 20 22 24 25 25 27 27 27 26 26 28 28 24 18 15 17
27 29 32 34 35 36 37 40 42 44 45 47 49 52 56 60 63 61 56 52 48 43 37 30 23 18 16 15 15 16 18 20 22 24 25 25 24 23 22 21 22 22 23 24 24 24 24 21 18 14 11 11 12 14 14 13 12 11 9 8 8 6 5 7 9 10 10 9 10 15 18 19 20 21 22 23 24 25 26 26 26 28 29 30 28 24 17 13
27 28 31 34 36 37 38 39 42 44 45 46 48 51 54 59 62 61 58 54 49 44 37 30 23 19 18 17 17 17 18 20 22 24 25 25 24 24 23 21 21 21 22 23 23 23 23 22 20 16 13 11 12 14 15 15 15 14 13 11 9 7 7 8 9 10 10 10 11 14 17 18 20 21 21 23 24 24 25 26 27 28 30 30 30 28 22 14
28 28 30 33 35 37 38 39 41 43 44 45 47 50 53 56 60 61 59 55 50 44 38 31 25 21 20 19 19 19 20 21 22 24 25 25 24 24 24 22 20 20 21 22 22 22 22 22 21 19 16 13 13 14 15 16 16 15 15 13 11 9 9 10 10 9 10 11 11 13 16 17 19 20 21 22 24 24 26 27 27 27 28 28 28 27 24 17
29 29 31 33 35 36 38 39 40 42 43 44 46 49 52 55 58 60 60 56 51 45 39 33 27 23 21 21 20 21 21 22 22 24 25 24 24 24 25 23 21 20 21 22 23 22 22 21 21 20 19 17 14 13 14 15 17 17 17 15 13 11 11 11 11 10 9 9 10 13 15 17 19 20 20 22 23 23 25 27 27 27 27 26 24 22 20 17
31 31 31 33 34 36 37 39 40 42 43 44 45 48 51 53 56 59 60 58 53 47 41 35 30 26 23 22 22 22 23 23 23 24 25 25 24 25 25 23 21 20 21 23 24 24 23 21 20 19 19 18 17 15 14 14 15 18 19 18 16 16 15 13 11 10 10 8 9 11 14 15 18 20 20 21 21 20 20 23 25 27 27 25 23 20 16 14
32 32 32 33 34 35 37 39 40 42 42 43 44 47 49 51 54 57 59 59 55 50 43 38 33 28 25 23 23 23 24 24 24 25 26 25 24 25 25 23 21 21 21 23 25 25 26 25 22 20 18 18 16 15 15 14 13 16 18 19 20 20 18 16 12 11 11 10 9 9 11 14 16 19 20 20 19 18 18 20 22 24 25 24 22 20 18 15
33 33 33 33 34 34 36 38 40 41 41 42 43 45 48 50 51 54 57 59 57 53 46 40 35 31 27 25 24 24 24 25 25 26 26 25 25 26 25 23 22 22 23 24 25 25 27 28 27 24 22 20 18 16 15 15 14 14 15 18 20 21 20 18 15 12 11 11 11 10 10 13 16 18 19 18 17 17 16 17 19 21 22 23 22 22 22 20
34 35 35 35 34 34 35 37 38 39 40 41 42 44 46 48 49 51 54 57 57 55 50 44 38 34 30 27 26 25 25 26 26 26 26 26 26 26 25 23 23 23 24 25 25 25 26 27 28 27 25 23 21 19 17 16 16 15 14 15 17 20 20 19 17 15 13 12 12 12 11 12 15 18 19 18 17 18 16 15 17 20 20 22 24 24 24 23
35 36 36 36 35 34 35 36 37 38 39 40 41 43 45 47 48 49 52 55 57 57 53 48 42 37 32 29 28 27 27 27 27 27 27 26 26 26 25 24 25 25 26 26 26 27 26 26 26 26 25 24 22 20 19 18 17 17 17 16 16 17 19 19 19 17 16 14 13 13 12 12 14 16 18 17 17 19 18 15 16 19 20 21 24 24 24 25
35 36 36 37 37 35 35 36 36 37 38 40 41 42 44 46 48 48 50 53 55 56 56 52 46 40 35 31 29 28 28 27 27 27 27 26 26 26 25 26 26 26 27 28 27 27 26 25 24 24 24 24 23 21 20 19 19 18 18 18 17 16 17 20 20 19 17 16 14 14 14 13 13 14 15 16 17 19 19 15 16 18 20 21 22 23 24 26
36 38 38 38 38 37 36 36 37 37 38 39 40 40 42 45 46 47 48 50 52 55 56 54 50 44 38 34 31 29 28 27 26 26 26 26 26 26 26 26 27 27 27 28 28 27 27 26 24 23 23 23 23 22 21 20 19 19 17 17 16 16 16 19 21 21 19 17 16 16 17 16 15 14 15 15 16 18 19 15 15 18 20 20 21 21 23 25
Wind_Direction
343 342 341 338 334 331 329 329 327 326 324 322 320 318 317 316 315 315 314 314 313 311 309 307 304 302 300 300 300 300 300 299 298 297 295 293 292 291 290 289 287 286 286 286 285 285 283 281 280 280 280 279 278 277 275 272 269 266 262 259 255 253 250 248 246 245 245 244 242 242 244 244 245 245 246 246 245 246 245 244 242 239 239 236 235 236 236 237
341 341 340 338 335 333 332 332 332 331 329 328 326 324 322 321 320 319 319 319 317 315 313 311 309 307 305 304 303 301 299 297 296 294 292 291 291 291 290 289 288 287 287 287 287 287 286 284 282 281 280 279 278 276 275 273 271 268 264 260 256 253 251 248 246 245 244 244 242 241 242 242 243 244 244 244 244 245 244 244 242 239 238 236 234 234 235 235
336 338 339 339 337 335 334 334 334 333 332 332 330 328 326 324 323 322 322 322 321 319 317 314 311 308 306 303 301 299 297 297 296 294 292 291 292 292 291 289 288 288 288 289 289 289 289 287 285 283 282 280 278 276 274 272 270 268 266 262 259 255 252 248 246 244 243 244 242 241 241 241 242 242 243 244 244 244 244 244 244 241 238 235 234 233 233 233
330 333 336 338 337 335 334 334 333 333 333 334 334 332 329 328 326 324 323 323 322 321 318 315 311 308 305 302 299 297 296 296 296 295 293 293 293 292 290 289 288 289 289 290 290 291 290 289 287 286 285 282 279 276 273 271 269 267 266 264 261 257 253 249 247 245 243 243 242 241 241 241 241 242 242 242 243 243 243 243 243 243 240 236 233 233 233 232
324 327 331 334 336 335 333 333 332 332 334 335 336 334 333 331 329 327 324 322 321 319 317 314 310 307 304 302 299 297 295 295 295 294 294 294 294 293 291 290 289 289 289 290 291 291 290 289 289 288 287 284 280 277 273 270 268 266 265 264 262 259 256 252 249 246 243 242 242 241 241 240 241 241 241 240 241 241 242 241 241 242 241 238 234 232 232 232
319 323 326 329 332 332 331 331 330 331 333 335 335 335 334 334 332 329 325 322 319 316 313 311 308 306 304 301 300 298 297 296 295 295 296 296 295 294 292 291 290 290 290 291 291 291 290 290 290 289 287 284 280 277 274 271 269 267 265 264 262 260 258 255 251 248 245 243 241 241 241 240 240 240 241 241 240 240 241 240 240 240 240 239 236 233 232 231
316 318 321 324 327 329 328 328 328 328 331 333 334 333 333 333 332 330 327 323 319 315 312 308 306 303 301 300 299 298 297 296 295 295 295 295 294 293 293 292 291 291 291 292 292 291 291 290 290 289 286 283 280 277 275 273 270 268 266 263 261 259 258 256 253 251 248 245 242 241 241 240 240 240 240 240 240 239 240 240 239 240 240 239 238 234 232 230
314 314 317 320 323 325 325 324 325 326 328 331 331 331 330 330 330 329 328 325 321 317 313 310 306 303 300 298 297 295 294 294 293 293 293 293 293 293 293 293 292 292 292 292 292 292 291 291 290 288 285 282 280 278 276 274 271 269 266 264 261 260 258 256 254 252 250 247 244 242 240 240 239 239 239 239 239 239 239 239 239 239 239 239 238 236 233 231
312 312 313 316 319 320 321 321 322 323 325 327 329 329 328 328 328 328 327 325 323 320 318 315 312 308 304 301 298 297 295 295 294 294 293 293 293 293 292 292 292 292 293 293 292 291 291 290 289 286 284 283 282 280 278 275 273 271 268 265 263 261 259 257 255 253 251 249 246 243 241 239 238 238 238 237 237 237 238 239 238 237 237 237 237 237 235 232
310 309 309 313 315 317 319 319 319 320 322 324 325 326 327 326 327 327 326 324 323 322 321 319 317 314 310 306 303 301 299 298 297 295 294 294 293 293 292 292 292 293 293 293 292 291 290 289 287 286 286 285 284 282 280 277 275 272 270 267 265 263 260 258 257 255 252 250 247 245 242 240 238 237 237 236 236 236 237 238 238 237 237 237 236 236 235 233
308 308 307 310 313 315 317 318 317 317 318 320 321 322 323 323 324 325 324 324 323 322 321 320 320 317 314 310 307 304 301 299 298 297 296 295 295 294 294 294 294 293 293 292 291 290 289 288 288 288 288 287 286 283 281 278 276 273 271 268 266 263 261 259 257 255 253 250 248 246 244 242 239 238 237 236 235 235 235 237 238 237 236 236 236 236 235 234
307 307 306 308 312 314 316 316 315 314 314 315 316 318 319 320 321 322 323 323 323 322 321 321 320 319 317 313 310 307 303 301 299 298 297 297 296 296 295 295 295 294 294 293 291 290 289 290 290 291 290 289 287 285 282 280 277 274 271 268 265 262 260 258 257 255 253 251 249 247 245 243 241 240 238 237 236 235 235 235 236 236 236 236 236 236 235 234
310 308 307 308 311 314 315 316 314 313 312 312 313 315 317 318 319 320 321 322 322 322 321 321 320 320 318 316 313 309 306 303 300 299 298 297 296 295 295 295 295 295 294 292 291 291 292 293 293 293 292 290 289 286 284 281 278 275 272 269 266 263 260 258 256 254 253 252 250 248 246 244 242 240 239 238 237 235 235 234 235 235 235 235 235 235 235 234
316 312 309 310 312 313 315 316 315 313 311 311 312 313 315 316 318 319 320 320 321 321 321 321 321 320 319 318 315 312 309 305 302 300 298 296 296 295 295 296 296 294 293 292 293 294 295 295 295 295 293 292 289 287 284 281 278 276 273 270 267 264 261 258 256 254 252 251 249 248 246 244 242 241 239 239 238 236 236 235 234 234 234 234 234 234 234 234
320 317 314 313 313 314 315 316 315 314 312 311 311 312 313 315 317 318 319 319 320 320 320 320 320 320 320 318 315 313 310 307 304 302 300 298 297 296 296 296 296 294 294 295 296 297 297 298 297 296 294 292 290 287 285 283 280 277 274 271 267 264 261 258 256 254 252 251 249 247 246 244 242 241 239 238 238 237 236 236 235 234 233 233 233 233 233 233
322 319 316 315 315 315 315 316 315 314 312 311 310 311 312 313 315 317 318 319 319 320 320 320 320 320 319 317 315 314 312 310 308 306 304 302 300 299 298 297 296 295 296 298 298 299 300 300 298 296 295 294 292 290 288 285 282 278 275 272 269 264 261 258 255 254 252 250 248 247 246 245 243 241 239 238 237 237 236 236 235 234 233 232 232 232 232 232
321 319 317 316 315 315 315 314 314 313 312 311 310 310 310 312 314 315 317 318 319 318 318 319 319 319 319 318 317 315 314 313 312 311 310 307 304 302 300 298 298 299 300 301 302 303 302 301 299 299 298 297 296 293 290 287 283 280 276 272 268 264 260 257 254 251 250 249 248 246 246 245 244 241 240 238 237 236 235 235 234 234 233 232 231 231 230 230
321 319 317 316 316 315 314 313 313 312 312 312 311 311 310 311 313 315 316 317 318 317 318 319 319 320 320 319 318 316 315 315 314 314 313 311 307 304 302 302 302 303 304 304 305 306 304 303 303 303 303 301 299 296 293 289 285 281 276 272 268 264 260 257 254 251 248 247 246 245 244 244 243 241 239 238 237 235 234 233 233 232 232 231 230 229 229 229
320 319 318 317 316 315 314 313 312 312 312 312 312 312 312 313 314 315 316 316 317 317 318 319 319 320 320 319 318 316 316 315 315 315 313 311 309 307 306 306 307 307 307 307 309 308 307 307 308 308 307 305 303 300 296 292 286 281 277 274 270 266 262 258 255 252 249 247 245 244 244 244 242 241 239 237 236 235 234 233 232 231 230 230 228 228 228 227
320 319 318 317 317 316 315 313 312 312 311 311 312 312 313 314 314 314 315 316 316 316 318 319 320 321 321 319 318 317 317 317 316 316 314 312 311 310 310 310 310 309 309 311 312 311 311 312 313 312 310 309 307 303 298 293 288 283 279 275 271 268 265 261 257 255 252 250 248 246 245 245 244 242 239 237 235 235 235 234 232 231 230 229 228 227 226 226
320 319 318 317 316 316 315 313 312 312 311 312 312 313 313 313 313 314 315 316 315 316 318 319 320 321 320 318 318 318 318 318 318 316 314 314 313 313 313 313 312 311 313 316 316 314 315 316 315 313 313 312 309 304 299 295 290 287 283 279 275 271 268 265 261 258 256 254 252 249 248 246 245 243 241 239 236 235 235 234 233 232 230 230 229 227 226 225
320 319 317 316 316 315 315 314 313 312 312 312 313 313 313 313 314 315 315 315 315 316 318 319 320 319 318 318 319 319 319 319 318 316 315 315 315 315 315 315 313 313 317 320 318 317 319 319 316 315 315 314 311 307 302 298 295 292 290 287 284 279 273 269 266 262 259 256 255 253 251 249 247 246 244 242 240 237 236 235 234 232 230 229 228 227 226 225
320 319 318 316 315 315 314 314 313 312 312 312 312 312 312 313 314 315 315 315 315 317 319 319 319 318 318 318 319 320 320 320 318 316 315 316 316 316 317 316 314 317 322 322 320 321 322 320 317 316 316 314 312 309 306 303 301 299 297 296 294 288 281 273 268 267 266 263 260 256 254 253 251 249 248 246 243 240 238 237 235 233 231 229 227 226 225 225
321 321 319 317 316 315 314 313 312 311 310 309 309 310 312 314 315 316 316 316 316 318 319 319 318 317 318 318 319 320 320 319 318 316 316 316 317 318 318 317 317 320 324 324 322 324 324 320 317 317 316 313 313 313 311 312 312 312 314 315 308 295 287 279 271 270 273 272 268 263 259 258 255 254 253 251 247 242 239 237 235 233 231 229 227 225 224 224
323 322 320 318 317 315 313 311 310 309 308 309 311 313 315 316 317 317 317 317 317 318 319 318 318 317 318 318 319 320 320 319 317 317 316 317 318 319 319 318 319 323 326 325 325 326 325 320 318 317 313 312 317 319 317 320 324 328 338 343 334 319 311 305 294 283 273 269 270 271 271 268 263 258 257 255 251 246 241 238 235 232 230 229 227 225 224 223
324 323 321 320 319 317 315 312 310 310 311 314 317 319 320 320 320 319 319 319 319 319 319 318 317 317 317 319 319 319 319 318 317 317 317 318 320 320 320 320 321 324 328 327 326 328 326 320 317 314 308 310 317 321 324 327 332 343 359 3 350 339 334 328 319 304 268 248 259 269 275 276 273 267 262 257 252 248 245 241 237 233 231 229 228 226 225 224
325 325 325 324 323 322 321 319 319 319 321 324 326 327 326 325 323 322 322 321 319 319 319 318 317 316 317 319 319 319 319 318 318 318 318 320 322 322 322 322 322 326 329 329 328 328 326 320 316 310 303 306 311 318 328 335 350 21 37 29 12 5 3 355 346 329 288 251 252 261 268 273 275 272 266 261 257 253 250 246 240 235 232 230 228 226 225 224
328 329 331 332 332 333 334 334 335 336 336 336 335 334 331 329 328 326 325 323 320 319 319 318 318 317 318 319 319 319 319 318 318 319 320 322 323 323 324 323 324 327 330 331 329 329 327 321 315 308 301 302 308 317 335 8 33 47 45 38 31 28 26 19 17 9 342 315 288 275 269 269 271 272 267 261 258 256 255 252 245 238 234 231 229 226 225 224
332 335 339 341 343 346 347 348 347 347 345 343 341 338 335 333 332 330 328 325 322 321 320 319 319 318 318 319 319 319 319 318 319 320 322 323 323 324 325 324 325 328 331 332 331 330 329 321 313 311 305 302 309 324 355 19 47 59 46 40 38 32 30 28 29 26 15 4 357 344 314 291 285 286 279 264 255 253 255 256 252 245 237 233 231 228 226 224
336 340 343 346 349 350 351 350 349 348 346 344 341 338 336 335 334 333 330 326 323 322 320 320 319 319 319 319 320 320 319 319 319 321 323 323 323 325 326 325 326 329 332 334 332 332 331 322 312 309 301 294 308 334 359 1 69 78 55 42 37 31 28 29 30 28 25 21 14 6 352 334 321 313 305 283 260 252 250 253 254 252 245 236 232 230 228 225
339 342 344 347 348 349 349 348 347 346 344 342 339 337 336 336 335 333 330 327 325 323 321 320 319 319 319 319 319 319 318 319 319 321 322 322 324 327 328 327 328 330 333 335 335 333 333 325 310 298 284 272 288 322 339 11 39 51 45 39 33 27 23 24 27 27 26 26 21 12 1 349 342 334 324 307 283 265 254 253 254 253 249 241 234 230 229 227
340 342 344 344 345 346 346 345 345 344 343 341 339 338 338 337 335 333 331 328 326 323 322 320 319 319 318 318 318 318 317 318 319 320 321 322 326 329 330 329 330 331 334 337 337 335 335 327 306 288 277 264 272 339 136 43 28 11 27 37 30 23 20 19 23 24 24 24 17 9 3 357 351 345 338 328 311 290 269 260 260 259 255 248 238 231 228 227
339 341 343 343 342 343 343 344 344 343 342 341 340 340 339 338 337 334 332 330 326 324 322 321 320 319 318 318 317 316 316 316 318 319 321 324 328 331 332 331 331 332 335 339 339 338 337 329 306 282 272 252 266 5 199 200 21 12 26 31 23 15 12 12 15 16 21 24 15 5 2 360 356 352 349 343 332 317 297 275 268 269 266 258 247 236 230 227
338 339 341 340 340 341 343 344 343 342 341 342 342 342 341 340 338 335 333 330 327 324 322 321 320 319 317 316 315 313 314 315 316 319 322 327 331 334 334 332 333 335 338 341 341 341 339 333 312 280 255 218 206 210 209 206 25 26 31 29 21 11 4 3 3 4 11 18 15 8 4 2 358 355 353 349 343 334 319 298 278 270 271 269 259 245 234 229
338 338 338 337 339 341 343 343 343 342 343 343 344 343 342 341 339 336 334 331 328 325 322 321 319 318 316 314 312 312 313 315 316 321 326 330 334 335 335 334 335 339 342 344 344 342 341 337 319 280 246 220 207 217 216 200 42 22 30 31 21 14 4 356 353 356 3 9 13 10 6 1 356 352 351 350 347 343 335 322 302 279 269 269 267 258 244 233
338 338 337 336 339 341 342 343 343 344 345 346 345 344 344 343 341 338 335 331 328 325 323 321 318 316 314 312 311 312 314 316 320 325 330 333 336 336 336 336 338 343 346 348 347 343 341 340 326 290 259 241 226 225 226 203 51 4 18 25 16 12 3 352 352 356 358 3 9 8 1 355 352 348 347 347 345 342 337 333 325 309 290 271 263 259 253 241
337 339 338 337 339 341 342 343 344 346 348 347 346 346 345 345 343 340 336 333 330 327 324 322 319 317 314 313 313 315 317 320 325 330 333 336 336 337 338 338 341 346 349 351 350 345 342 342 330 298 271 261 254 246 239 235 315 332 349 5 8 4 356 353 0 1 355 356 3 3 356 352 349 346 347 347 345 339 334 331 329 322 310 292 273 259 252 247
336 338 338 338 340 341 341 342 344 347 349 349 348 348 348 347 345 342 339 336 334 332 330 327 323 320 318 317 318 319 323 328 331 333 336 337 336 336 340 341 344 349 352 354 354 350 345 342 334 302 275 270 271 272 267 273 304 313 310 324 351 356 350 354 2 4 356 350 353 358 354 348 345 343 343 342 340 337 334 331 328 323 317 307 288 267 253 248
335 337 337 338 340 341 341 341 344 348 350 350 350 350 350 349 348 346 342 341 341 340 338 335 331 328 326 324 326 329 332 334 335 336 338 338 336 337 340 343 346 351 354 356 356 355 350 343 336 310 279 272 276 284 290 293 300 303 299 299 315 339 348 355 358 360 355 343 344 352 350 341 338 337 335 335 334 332 330 327 324 323 324 321 307 281 259 248
335 338 338 338 339 340 340 341 343 347 351 351 351 351 351 351 351 349 347 347 348 348 347 344 341 337 335 336 338 339 338 337 339 339 339 339 337 336 339 343 347 352 356 357 358 359 356 346 335 316 284 272 272 279 286 286 282 285 288 286 284 309 343 350 349 349 349 338 334 340 340 333 332 332 331 332 331 328 326 324 324 328 332 331 325 305 274 252
335 338 338 338 338 339 340 341 343 346 350 352 352 351 352 353 353 352 351 352 354 355 354 352 348 346 346 348 347 345 342 340 340 341 341 341 340 338 338 341 348 354 357 358 358 1 1 353 340 324 295 275 272 275 278 275 268 266 269 268 267 286 332 338 335 334 338 333 321 324 330 330 329 329 329 331 331 328 327 327 330 335 338 336 333 325 299 261
331 335 336 337 337 338 340 341 343 345 349 352 352 351 353 355 355 355 355 356 358 359 358 356 354 354 354 356 352 347 344 342 341 342 342 343 343 341 338 339 346 354 359 359 358 0 3 0 351 336 315 288 274 274 277 278 274 272 271 271 276 292 310 316 320 322 325 323 311 315 323 326 326 326 326 329 330 329 327 331 337 341 341 340 336 333 321 282
326 331 333 335 337 339 340 340 342 344 347 351 352 351 353 356 358 358 358 358 0 1 0 358 358 359 358 358 353 346 344 342 341 341 343 344 345 343 341 339 343 351 358 360 359 359 1 3 1 351 333 309 285 277 278 281 281 279 275 274 280 290 293 295 302 309 312 311 308 310 315 318 320 323 325 326 328 329 332 339 344 343 342 341 338 334 329 307
322 327 330 333 335 338 340 340 342 343 346 350 351 351 353 357 359 0 0 0 1 2 1 359 358 360 358 356 351 345 342 341 340 340 342 344 345 345 344 342 342 346 354 358 359 359 360 1 3 1 352 334 308 291 284 282 284 283 279 277 278 282 282 280 285 294 302 303 303 304 307 310 315 320 323 325 329 336 342 345 346 344 342 342 339 335 331 322
320 324 327 331 333 336 339 340 341 342 345 349 351 350 352 357 0 2 2 2 3 3 2 359 358 358 357 354 349 343 341 340 339 339 342 344 344 346 346 344 344 346 351 355 356 357 358 359 0 1 359 352 337 316 298 285 281 281 281 282 282 280 276 274 276 283 292 298 297 296 299 304 311 317 322 327 334 343 348 347 345 343 342 342 340 337 335 332
317 321 325 329 332 335 337 340 341 342 344 348 350 350 352 356 0 3 4 4 4 3 2 0 358 357 356 353 348 342 340 339 339 340 343 344 345 347 347 347 347 349 351 354 354 352 353 355 357 356 354 354 351 340 322 301 285 279 279 281 281 279 276 272 272 278 286 294 294 290 291 297 305 313 322 330 336 340 344 345 341 340 342 343 343 342 344 346
314 318 322 327 331 334 336 339 341 342 343 346 349 350 351 355 360 3 4 5 5 4 3 1 359 358 357 355 349 342 339 340 340 341 344 345 347 348 350 351 352 353 354 354 352 350 348 347 349 350 348 346 346 344 338 324 302 284 276 273 272 273 273 271 269 273 280 288 292 286 284 288 296 307 319 327 332 335 339 342 339 337 338 341 346 351 355 359
312 316 320 325 330 333 335 337 340 341 342 345 348 349 350 353 358 2 4 6 6 5 3 2 0 359 359 357 351 344 341 341 342 343 345 347 349 351 353 355 357 356 355 353 350 348 346 343 342 343 343 340 338 338 337 334 323 303 284 271 266 266 268 269 269 271 273 279 285 285 284 286 290 301 313 319 323 327 334 338 336 332 335 343 352 360 3 5
311 314 318 323 327 331 333 335 338 341 341 343 346 348 349 351 356 1 3 5 7 7 5 3 1 1 0 358 354 348 345 345 344 344 346 349 352 354 355 356 357 355 352 350 347 345 344 342 340 340 340 338 336 334 332 330 328 321 307 287 272 266 266 267 268 270 270 271 275 278 282 284 285 293 305 312 315 317 324 334 336 334 342 354 0 3 5 8
311 314 317 321 325 330 332 334 337 340 341 342 344 347 348 349 353 359 2 4 7 7 7 5 3 1 1 359 356 352 349 348 347 345 347 350 353 356 356 354 354 353 350 347 345 344 345 343 341 340 339 337 334 332 328 325 323 321 318 310 295 281 273 270 269 269 269 268 268 272 277 277 275 281 294 304 309 313 320 336 347 346 351 2 5 3 5 9
313 315 317 320 323 328 331 334 336 339 340 340 342 345 347 347 350 356 0 3 6 7 8 7 5 3 2 1 358 355 352 351 349 347 349 351 354 356 355 353 351 350 348 346 347 347 347 346 345 343 341 339 335 332 327 323 319 316 316 317 314 303 287 277 273 271 271 270 269 271 274 274 270 273 286 299 308 313 320 339 358 357 357 4 7 4 6 12
315 316 317 319 321 325 329 332 335 337 338 339 340 342 345 346 348 352 358 1 4 6 8 8 7 5 3 2 359 357 354 352 351 350 350 353 355 356 354 351 351 351 350 351 352 353 352 351 351 349 347 345 341 337 331 324 317 313 311 311 313 312 302 286 277 274 272 270 269 270 272 277 280 283 291 302 310 312 317 338 3 1 356 360 4 7 11 14
Height
10737 10736 10735 10734 10733 10732 10731 10730 10729 10728 10726 10725 10724 10722 10721 10720 10718 10717 10715 10714 10712 10710 10709 10707 10706 10704 10703 10702 10701 10699 10698 10697 10696 10694 10693 10691 10690 10688 10687 10685 10683 10681 10679 10677 10675 10674 10673 10672 10671 10669 10667 10665 10664 10664 10663 10663 10663 10663 10664 10666 10668 10668 10670 10673 10673 10673 10675 10675 10678 10681 10679 10679 10680 10682 10685 10686 10688 10691 10696 10699 10701 10706 10708 10713 10716 10718 10721 10722
10736 10735 10734 10733 10732 10730 10729 10728 10727 10726 10724 10723 10722 10720 10719 10717 10716 10714 10713 10711 10710 10708 10706 10705 10703 10701 10700 10699 10697 10696 10695 10693 10692 10691 10689 10688 10686 10684 10683 10680 10678 10676 10674 10672 10670 10668 10667 10666 10665 10663 10660 10659 10657 10656 10656 10655 10655 10655 10656 10657 10658 10661 10663 10665 10665 10666 10667 10666 10671 10673 10672 10673 10674 10676 10679 10679 10682 10686 10690 10691 10695 10699 10702 10707 10711 10713 10715 10718
10735 10734 10732 10731 10730 10729 10728 10726 10725 10724 10722 10721 10719 10718 10716 10715 10713 10711 10710 10708 10707 10705 10703 10702 10700 10699 10697 10696 10694 10693 10691 10690 10689 10687 10685 10684 10682 10680 10678 10676 10673 10671 10668 10666 10664 10662 10661 10659 10658 10656 10654 10652 10650 10649 10648 10647 10646 10646 10647 10647 10650 10653 10654 10655 10656 10657 10659 10659 10663 10665 10665 10668 10668 10670 10673 10674 10677 10681 10683 10685 10688 10691 10696 10701 10705 10708 10710 10713
10733 10732 10731 10730 10728 10727 10726 10724 10723 10722 10720 10719 10717 10716 10714 10712 10711 10709 10707 10706 10704 10702 10701 10699 10697 10696 10694 10693 10691 10690 10688 10686 10685 10683 10681 10679 10677 10675 10673 10670 10668 10665 10662 10660 10658 10656 10654 10652 10651 10649 10647 10645 10643 10641 10641 10639 10638 10637 10638 10639 10642 10643 10643 10645 10647 10649 10652 10653 10655 10656 10659 10661 10661 10664 10667 10669 10672 10675 10677 10679 10682 10684 10689 10694 10699 10702 10704 10707
10732 10731 10729 10728 10727 10725 10724 10722 10721 10719 10718 10717 10715 10713 10711 10710 10708 10706 10705 10703 10701 10700 10698 10696 10695 10693 10691 10690 10688 10686 10684 10682 10680 10678 10676 10674 10672 10669 10667 10665 10662 10660 10657 10654 10652 10649 10648 10645 10644 10641 10639 10637 10635 10634 10633 10631 10630 10629 10630 10631 10632 10632 10633 10637 10639 10640 10643 10645 10646 10648 10651 10653 10655 10658 10660 10662 10666 10668 10669 10673 10674 10676 10681 10686 10692 10696 10699 10702
10730 10729 10728 10726 10725 10723 10722 10720 10719 10717 10716 10715 10713 10711 10709 10707 10705 10704 10702 10700 10699 10697 10695 10693 10691 10690 10688 10686 10684 10681 10679 10677 10675 10673 10671 10668 10666 10663 10661 10659 10656 10654 10651 10648 10645 10643 10641 10638 10636 10634 10631 10629 10627 10626 10625 10623 10621 10621 10622 10622 10622 10623 10623 10627 10629 10631 10634 10636 10639 10641 10643 10646 10648 10651 10653 10656 10660 10661 10662 10665 10666 10668 10674 10679 10685 10690 10692 10696
10729 10727 10726 10725 10723 10722 10720 10719 10717 10715 10714 10712 10711 10709 10706 10705 10703 10701 10699 10697 10696 10694 10692 10690 10688 10686 10683 10681 10679 10676 10674 10672 10669 10667 10665 10662 10660 10657 10655 10652 10650 10647 10644 10641 10638 10636 10633 10631 10628 10626 10623 10621 10619 10618 10616 10614 10612 10612 10614 10614 10612 10613 10614 10617 10619 10621 10624 10627 10631 10634 10636 10638 10640 10643 10647 10650 10652 10653 10654 10656 10659 10662 10667 10672 10677 10682 10686 10689
10727 10725 10724 10723 10721 10720 10718 10717 10715 10713 10712 10710 10708 10706 10704 10702 10701 10699 10697 10695 10693 10691 10689 10686 10684 10682 10679 10677 10674 10671 10669 10667 10664 10662 10659 10657 10654 10651 10648 10646 10643 10640 10637 10634 10631 10629 10626 10623 10620 10617 10615 10613 10611 10609 10607 10605 10604 10603 10604 10604 10603 10604 10605 10607 10609 10612 10615 10618 10622 10625 10627 10629 10632 10635 10639 10640 10642 10645 10646 10647 10652 10656 10660 10664 10669 10674 10679 10683
10725 10724 10722 10721 10720 10718 10716 10715 10713 10711 10710 10708 10706 10704 10702 10700 10698 10696 10694 10692 10690 10688 10685 10683 10681 10678 10675 10673 10670 10667 10664 10661 10659 10656 10654 10651 10648 10645 10642 10639 10636 10634 10631 10628 10624 10621 10618 10615 10612 10609 10606 10605 10603 10601 10599 10597 10596 10594 10594 10595 10594 10595 10596 10598 10600 10603 10606 10609 10612 10615 10617 10619 10623 10626 10628 10628 10631 10636 10638 10638 10643 10648 10652 10656 10661 10665 10671 10675
10723 10722 10721 10719 10718 10716 10714 10712 10711 10709 10707 10706 10704 10702 10699 10697 10695 10694 10692 10689 10687 10685 10682 10680 10677 10674 10671 10668 10666 10663 10659 10657 10654 10651 10648 10645 10642 10639 10636 10633 10630 10628 10625 10621 10617 10614 10610 10606 10603 10601 10598 10596 10594 10592 10590 10588 10587 10586 10585 10585 10586 10586 10587 10589 10590 10593 10597 10599 10601 10604 10607 10609 10613 10616 10616 10617 10624 10629 10630 10630 10634 10641 10645 10648 10653 10657 10663 10667
10721 10720 10718 10717 10716 10714 10712 10710 10709 10707 10705 10703 10702 10699 10697 10695 10693 10691 10689 10686 10684 10681 10679 10676 10673 10671 10667 10664 10662 10658 10655 10652 10649 10645 10642 10639 10635 10632 10628 10626 10623 10620 10617 10614 10610 10606 10602 10599 10596 10593 10591 10588 10585 10583 10581 10579 10578 10577 10576 10576 10576 10576 10577 10580 10581 10583 10585 10588 10591 10595 10597 10600 10604 10606 10605 10609 10616 10619 10621 10623 10627 10633 10637 10640 10645 10649 10655 10659
10719 10718 10716 10715 10714 10712 10711 10709 10707 10705 10703 10701 10699 10697 10694 10692 10690 10688 10685 10683 10680 10677 10675 10672 10669 10666 10663 10660 10657 10653 10650 10647 10643 10640 10637 10633 10629 10625 10621 10618 10615 10612 10609 10605 10601 10597 10594 10591 10588 10585 10582 10579 10576 10573 10571 10570 10568 10567 10566 10566 10565 10566 10568 10570 10571 10572 10574 10577 10581 10585 10587 10590 10593 10595 10597 10602 10607 10610 10614 10616 10619 10625 10629 10633 10637 10641 10647 10652
10717 10716 10714 10713 10711 10710 10709 10707 10705 10702 10700 10698 10696 10694 10691 10689 10686 10684 10681 10678 10676 10673 10670 10667 10664 10661 10658 10655 10651 10648 10644 10641 10638 10634 10631 10627 10623 10618 10615 10611 10608 10604 10600 10597 10593 10589 10587 10583 10580 10577 10574 10571 10567 10564 10562 10560 10558 10557 10556 10556 10556 10557 10560 10561 10561 10562 10564 10568 10572 10575 10576 10578 10581 10584 10589 10594 10598 10602 10605 10607 10611 10616 10621 10626 10630 10634 10639 10644
10715 10714 10712 10710 10709 10707 10706 10704 10702 10700 10697 10695 10693 10690 10688 10685 10682 10680 10677 10674 10671 10668 10665 10662 10659 10655 10652 10649 10645 10641 10638 10635 10631 10628 10624 10621 10617 10612 10608 10605 10602 10597 10593 10589 10586 10582 10579 10576 10572 10569 10565 10562 10558 10556 10553 10551 10549 10548 10547 10547 10547 10549 10551 10551 10552 10553 10556 10558 10562 10564 10564 10567 10571 10575 10581 10585 10588 10593 10597 10599 10604 10608 10613 10618 10622 10627 10631 10636
10713 10711 10710 10708 10706 10704 10703 10701 10699 10697 10694 10692 10689 10687 10684 10682 10679 10676 10673 10669 10666 10663 10660 10656 10653 10650 10646 10642 10639 10635 10632 10628 10625 10621 10617 10614 10610 10606 10602 10599 10595 10591 10587 10583 10579 10576 10572 10569 10564 10560 10557 10553 10551 10548 10545 10543 10541 10540 10539 10538 10539 10540 10541 10542 10543 10545 10547 10549 10552 10554 10553 10556 10561 10566 10571 10576 10579 10584 10588 10591 10595 10600 10605 10610 10614 10619 10623 10628
10711 10709 10707 10705 10703 10701 10699 10697 10696 10694 10691 10688 10686 10683 10680 10677 10674 10671 10668 10665 10662 10658 10655 10651 10648 10645 10641 10637 10633 10629 10625 10622 10618 10614 10610 10607 10603 10600 10596 10593 10589 10584 10581 10577 10573 10569 10565 10561 10557 10553 10549 10546 10543 10540 10538 10535 10533 10532 10531 10530 10531 10532 10533 10533 10534 10536 10538 10540 10542 10544 10545 10546 10551 10556 10561 10565 10568 10573 10577 10581 10585 10590 10596 10601 10605 10610 10615 10620
10708 10706 10704 10703 10701 10698 10696 10694 10692 10690 10687 10685 10682 10679 10676 10673 10670 10667 10664 10660 10657 10654 10650 10647 10643 10639 10636 10631 10627 10624 10620 10616 10612 10608 10604 10601 10597 10594 10591 10587 10583 10579 10574 10570 10566 10562 10558 10554 10549 10546 10543 10539 10536 10532 10530 10527 10525 10524 10523 10523 10523 10524 10524 10524 10526 10528 10529 10530 10533 10535 10536 10538 10542 10547 10550 10554 10558 10562 10566 10570 10575 10580 10585 10591 10597 10601 10606 10611
10705 10703 10701 10699 10697 10695 10693 10690 10688 10685 10683 10681 10678 10675 10673 10670 10667 10663 10660 10656 10652 10649 10645 10641 10638 10634 10630 10625 10622 10619 10615 10611 10607 10603 10599 10595 10592 10588 10585 10581 10577 10573 10568 10563 10560 10556 10550 10546 10542 10539 10535 10532 10528 10525 10522 10520 10518 10517 10516 10516 10516 10517 10517 10517 10518 10519 10520 10522 10524 10526 10528 10529 10533 10537 10541 10544 10548 10551 10555 10559 10563 10568 10574 10580 10586 10592 10597 10602
10702 10700 10698 10696 10694 10692 10689 10686 10684 10682 10679 10676 10674 10671 10668 10665 10662 10659 10655 10652 10648 10644 10640 10636 10632 10628 10624 10620 10617 10614 10611 10607 10602 10598 10594 10590 10586 10583 10579 10575 10571 10566 10562 10558 10554 10549 10543 10539 10536 10532 10528 10525 10521 10518 10516 10514 10512 10511 10510 10510 10510 10511 10511 10512 10512 10512 10513 10515 10516 10518 10520 10521 10524 10528 10531 10535 10539 10541 10544 10549 10553 10558 10563 10569 10576 10581 10587 10592
10699 10697 10695 10692 10690 10688 10685 10683 10680 10677 10675 10673 10670 10667 10664 10661 10658 10654 10651 10647 10643 10639 10635 10631 10627 10623 10619 10616 10613 10610 10606 10602 10598 10594 10589 10585 10581 10576 10573 10569 10565 10560 10557 10554 10549 10542 10537 10533 10529 10524 10521 10519 10516 10513 10510 10508 10507 10506 10506 10506 10506 10506 10506 10506 10507 10507 10508 10509 10510 10512 10514 10515 10517 10519 10522 10526 10531 10534 10537 10542 10547 10552 10557 10561 10567 10572 10577 10583
10696 10694 10691 10689 10686 10684 10681 10679 10676 10673 10671 10668 10666 10663 10660 10657 10654 10650 10647 10642 10638 10634 10630 10626 10622 10619 10615 10612 10609 10605 10601 10597 10593 10588 10584 10579 10575 10571 10567 10563 10558 10554 10551 10548 10543 10537 10532 10528 10523 10519 10516 10514 10511 10508 10506 10504 10503 10502 10502 10502 10502 10503 10503 10502 10502 10503 10503 10504 10505 10507 10508 10508 10509 10512 10515 10520 10525 10528 10532 10536 10540 10545 10550 10555 10560 10565 10570 10575
10693 10690 10688 10685 10682 10680 10677 10675 10672 10670 10667 10663 10661 10658 10655 10652 10649 10646 10642 10638 10634 10630 10626 10621 10617 10614 10611 10608 10604 10601 10596 10592 10588 10583 10578 10574 10570 10565 10561 10557 10552 10549 10546 10543 10538 10533 10528 10523 10518 10514 10512 10510 10507 10505 10503 10501 10500 10499 10499 10499 10499 10500 10500 10499 10499 10499 10499 10500 10501 10502 10501 10501 10503 10507 10511 10515 10520 10524 10527 10530 10534 10538 10542 10546 10551 10556 10562 10567
10690 10687 10684 10681 10679 10676 10673 10671 10668 10666 10663 10660 10656 10654 10651 10648 10645 10641 10638 10634 10629 10625 10621 10616 10612 10609 10607 10603 10599 10596 10591 10587 10584 10578 10574 10569 10565 10561 10556 10551 10547 10544 10542 10538 10533 10529 10524 10519 10514 10511 10509 10507 10504 10502 10500 10499 10498 10498 10498 10498 10498 10497 10497 10497 10497 10496 10496 10497 10497 10497 10496 10496 10499 10503 10507 10510 10514 10519 10521 10524 10527 10530 10533 10537 10541 10547 10552 10557
10686 10683 10680 10677 10675 10672 10669 10667 10664 10661 10659 10656 10653 10650 10647 10644 10641 10637 10633 10629 10625 10621 10616 10612 10608 10605 10602 10599 10595 10591 10587 10583 10579 10574 10569 10565 10561 10556 10552 10546 10542 10539 10538 10534 10529 10525 10521 10515 10511 10508 10506 10504 10502 10501 10499 10498 10497 10497 10497 10497 10496 10495 10495 10495 10495 10495 10495 10494 10493 10492 10492 10493 10497 10501 10503 10506 10509 10511 10513 10514 10516 10519 10523 10527 10532 10537 10542 10547
10683 10680 10677 10674 10671 10668 10665 10662 10660 10657 10654 10651 10649 10646 10643 10640 10637 10633 10629 10625 10620 10617 10612 10608 10604 10600 10597 10594 10590 10586 10582 10578 10574 10569 10565 10561 10557 10552 10547 10542 10538 10536 10534 10530 10525 10522 10518 10512 10508 10506 10504 10502 10501 10499 10498 10497 10496 10496 10495 10495 10494 10493 10493 10493 10493 10494 10494 10493 10491 10489 10490 10491 10494 10498 10501 10501 10502 10503 10503 10504 10506 10510 10514 10518 10523 10528 10533 10538
10679 10676 10673 10670 10667 10664 10661 10658 10655 10652 10650 10647 10645 10642 10639 10636 10633 10629 10626 10621 10616 10612 10608 10604 10599 10596 10593 10589 10585 10581 10577 10573 10569 10565 10560 10557 10553 10548 10543 10538 10534 10532 10530 10526 10522 10518 10515 10510 10507 10505 10503 10501 10500 10499 10498 10496 10496 10495 10495 10494 10493 10492 10492 10492 10492 10492 10492 10491 10490 10489 10488 10488 10491 10495 10496 10495 10495 10496 10496 10497 10499 10503 10507 10511 10515 10520 10525 10530
10676 10672 10669 10666 10663 10660 10658 10655 10652 10649 10646 10644 10641 10639 10636 10633 10630 10626 10622 10618 10612 10608 10605 10600 10595 10591 10588 10585 10581 10576 10572 10568 10564 10560 10556 10552 10548 10543 10539 10534 10530 10529 10527 10523 10519 10515 10512 10508 10506 10504 10501 10500 10499 10498 10497 10496 10496 10495 10495 10494 10493 10492 10492 10491 10490 10490 10490 10490 10489 10489 10488 10487 10488 10490 10491 10491 10491 10491 10491 10491 10494 10498 10501 10504 10507 10512 10517 10522
10673 10669 10666 10662 10659 10657 10654 10652 10649 10646 10644 10641 10638 10636 10633 10630 10626 10622 10618 10614 10609 10604 10601 10596 10591 10586 10582 10580 10576 10572 10567 10563 10560 10556 10551 10548 10543 10539 10535 10530 10527 10525 10523 10520 10516 10512 10509 10505 10504 10503 10500 10498 10497 10497 10496 10496 10495 10494 10493 10493 10492 10491 10491 10490 10489 10488 10488 10488 10488 10488 10487 10486 10485 10486 10487 10488 10488 10488 10487 10487 10488 10491 10494 10497 10500 10504 10509 10513
10671 10667 10664 10660 10657 10654 10652 10650 10647 10645 10642 10639 10636 10633 10630 10626 10623 10619 10614 10609 10604 10599 10595 10591 10587 10581 10577 10574 10571 10567 10562 10558 10555 10551 10547 10544 10540 10536 10532 10527 10524 10522 10520 10517 10513 10510 10507 10503 10501 10500 10498 10496 10496 10495 10494 10494 10494 10493 10492 10492 10491 10490 10490 10488 10487 10487 10486 10486 10487 10486 10485 10484 10483 10483 10483 10484 10484 10484 10484 10483 10483 10484 10487 10491 10493 10497 10501 10504
10670 10666 10662 10659 10656 10653 10650 10648 10645 10643 10640 10637 10634 10630 10627 10623 10619 10615 10610 10604 10599 10594 10590 10586 10582 10577 10572 10568 10565 10562 10558 10554 10550 10547 10544 10540 10537 10533 10530 10525 10522 10519 10517 10515 10511 10507 10505 10502 10499 10498 10496 10495 10494 10493 10493 10493 10493 10492 10492 10491 10490 10490 10489 10488 10487 10486 10486 10486 10485 10484 10483 10481 10481 10480 10480 10480 10480 10480 10479 10479 10478 10479 10481 10484 10487 10490 10494 10497
10668 10665 10661 10658 10655 10652 10649 10646 10644 10641 10638 10635 10631 10627 10624 10619 10615 10610 10605 10599 10594 10589 10585 10581 10577 10573 10568 10564 10560 10557 10553 10549 10546 10544 10541 10538 10534 10531 10527 10523 10519 10516 10515 10512 10508 10505 10503 10500 10498 10496 10495 10494 10493 10493 10492 10492 10491 10491 10491 10490 10489 10489 10488 10487 10486 10486 10485 10485 10484 10483 10481 10480 10478 10478 10478 10477 10477 10476 10476 10475 10475 10475 10475 10477 10480 10483 10486 10490
10667 10664 10660 10657 10654 10651 10648 10645 10642 10639 10636 10632 10628 10624 10620 10616 10611 10606 10600 10594 10588 10583 10580 10576 10572 10568 10564 10560 10556 10553 10549 10546 10543 10540 10538 10535 10532 10529 10525 10521 10517 10514 10511 10509 10506 10503 10500 10499 10497 10495 10494 10493 10492 10492 10491 10490 10490 10490 10490 10489 10488 10488 10487 10486 10486 10485 10485 10484 10483 10481 10480 10478 10476 10476 10475 10474 10474 10474 10473 10473 10472 10471 10471 10472 10474 10476 10479 10482
10666 10662 10659 10656 10652 10649 10646 10643 10639 10636 10633 10630 10626 10622 10617 10613 10607 10601 10595 10589 10583 10578 10574 10571 10567 10563 10560 10556 10553 10549 10546 10543 10540 10538 10535 10532 10530 10527 10523 10519 10516 10512 10508 10506 10503 10501 10499 10497 10496 10494 10493 10492 10491 10490 10490 10490 10490 10489 10488 10487 10486 10486 10485 10485 10485 10484 10483 10483 10481 10480 10478 10476 10475 10473 10472 10471 10471 10470 10470 10470 10469 10468 10468 10468 10469 10471 10473 10474
10664 10661 10658 10654 10651 10648 10645 10641 10637 10634 10630 10627 10623 10619 10614 10609 10603 10597 10591 10585 10578 10573 10568 10565 10562 10559 10555 10552 10549 10546 10543 10541 10538 10535 10533 10530 10527 10525 10521 10518 10514 10510 10507 10503 10501 10499 10497 10496 10495 10493 10492 10491 10490 10489 10489 10489 10488 10487 10486 10486 10486 10485 10484 10484 10483 10482 10482 10481 10480 10478 10476 10474 10473 10472 10471 10469 10468 10467 10467 10466 10466 10465 10464 10464 10464 10465 10467 10468
10663 10660 10657 10653 10650 10647 10643 10640 10636 10632 10628 10624 10620 10615 10611 10605 10599 10593 10586 10580 10573 10567 10563 10560 10556 10554 10551 10548 10545 10542 10540 10538 10535 10533 10531 10528 10525 10523 10520 10517 10513 10509 10505 10502 10499 10496 10495 10494 10494 10492 10491 10490 10489 10489 10488 10488 10487 10486 10485 10485 10485 10485 10484 10483 10482 10481 10480 10480 10479 10476 10474 10472 10471 10469 10468 10467 10466 10465 10464 10463 10462 10461 10461 10461 10460 10460 10460 10462
10662 10659 10655 10652 10648 10645 10642 10638 10634 10630 10626 10622 10617 10612 10607 10602 10596 10589 10582 10575 10569 10563 10558 10554 10551 10548 10546 10543 10541 10539 10537 10535 10533 10531 10528 10526 10524 10521 10519 10516 10512 10508 10504 10500 10497 10495 10493 10492 10492 10491 10490 10489 10489 10488 10487 10486 10486 10485 10484 10484 10484 10484 10484 10483 10482 10480 10478 10478 10476 10474 10473 10471 10469 10467 10466 10464 10463 10462 10461 10460 10459 10458 10457 10456 10456 10456 10455 10456
10660 10657 10654 10650 10647 10644 10640 10637 10633 10628 10624 10620 10615 10610 10605 10599 10593 10586 10579 10572 10565 10559 10553 10549 10546 10544 10542 10540 10538 10536 10534 10532 10530 10528 10526 10524 10522 10520 10517 10515 10511 10507 10504 10500 10497 10494 10492 10491 10490 10490 10489 10488 10487 10487 10486 10485 10484 10484 10483 10483 10482 10482 10482 10482 10480 10478 10477 10475 10474 10473 10471 10469 10467 10464 10462 10460 10459 10457 10456 10455 10455 10454 10453 10452 10451 10451 10450 10450
10658 10655 10652 10648 10645 10642 10638 10635 10631 10627 10622 10618 10613 10608 10602 10596 10590 10583 10575 10568 10561 10555 10549 10545 10542 10540 10538 10536 10535 10533 10532 10530 10528 10526 10524 10522 10521 10518 10516 10513 10510 10507 10503 10500 10497 10494 10492 10490 10489 10489 10488 10486 10486 10485 10485 10483 10482 10482 10482 10482 10481 10481 10481 10480 10478 10477 10475 10474 10472 10471 10470 10467 10465 10463 10460 10459 10457 10455 10453 10451 10451 10450 10448 10447 10446 10445 10445 10444
10655 10653 10649 10646 10643 10640 10636 10633 10629 10625 10621 10616 10611 10605 10599 10593 10586 10579 10571 10564 10557 10551 10546 10542 10538 10536 10535 10534 10533 10531 10530 10528 10527 10524 10522 10521 10519 10517 10515 10512 10509 10506 10503 10500 10496 10493 10491 10489 10488 10487 10487 10485 10484 10483 10482 10481 10481 10480 10480 10480 10480 10480 10479 10478 10477 10475 10474 10473 10472 10470 10469 10467 10466 10464 10462 10460 10458 10456 10453 10451 10448 10446 10444 10442 10440 10439 10439 10439
10653 10650 10647 10644 10641 10638 10634 10631 10627 10623 10618 10614 10609 10603 10597 10590 10583 10577 10569 10561 10554 10548 10543 10539 10536 10535 10533 10532 10531 10530 10528 10527 10525 10523 10521 10519 10517 10516 10514 10511 10508 10505 10502 10499 10496 10493 10490 10488 10487 10486 10485 10484 10483 10482 10481 10480 10479 10479 10478 10478 10478 10478 10478 10476 10475 10474 10473 10472 10471 10470 10469 10467 10466 10464 10462 10460 10458 10455 10453 10450 10447 10444 10440 10438 10436 10434 10433 10433
10651 10648 10645 10642 10639 10636 10632 10629 10625 10621 10616 10612 10607 10602 10595 10588 10580 10573 10566 10559 10552 10546 10542 10538 10536 10534 10533 10532 10530 10529 10527 10525 10524 10522 10520 10518 10516 10514 10512 10510 10508 10505 10502 10499 10496 10493 10490 10487 10486 10484 10484 10483 10482 10481 10480 10479 10479 10478 10477 10477 10477 10476 10475 10475 10474 10473 10472 10472 10470 10469 10468 10467 10465 10463 10461 10459 10457 10455 10452 10449 10445 10442 10438 10434 10432 10430 10428 10427
10649 10646 10643 10640 10637 10634 10630 10627 10623 10619 10614 10610 10605 10600 10594 10586 10578 10571 10564 10557 10551 10546 10542 10539 10536 10534 10533 10531 10530 10528 10526 10524 10522 10521 10519 10516 10514 10512 10511 10509 10507 10504 10501 10498 10496 10493 10490 10487 10485 10483 10482 10481 10480 10480 10479 10478 10477 10476 10475 10475 10474 10473 10472 10472 10472 10472 10471 10470 10469 10468 10467 10465 10463 10462 10460 10458 10456 10454 10451 10447 10442 10439 10435 10432 10428 10426 10424 10423
10647 10644 10641 10638 10635 10632 10629 10625 10621 10617 10613 10608 10604 10599 10593 10587 10579 10571 10563 10557 10551 10546 10542 10539 10537 10535 10533 10531 10530 10528 10526 10524 10522 10520 10518 10516 10513 10511 10509 10507 10505 10503 10501 10498 10496 10493 10490 10488 10485 10483 10481 10479 10478 10477 10477 10476 10475 10474 10473 10472 10471 10470 10470 10470 10470 10469 10469 10468 10468 10467 10465 10464 10462 10461 10459 10457 10455 10452 10448 10444 10439 10436 10433 10430 10426 10423 10421 10419
10644 10642 10639 10636 10633 10630 10627 10624 10620 10616 10612 10607 10603 10598 10593 10587 10580 10572 10565 10558 10552 10547 10543 10540 10537 10535 10533 10531 10529 10527 10525 10523 10521 10519 10517 10515 10512 10510 10508 10505 10504 10502 10499 10497 10495 10493 10490 10487 10485 10482 10480 10478 10476 10475 10475 10474 10473 10472 10472 10470 10469 10468 10468 10468 10467 10467 10467 10466 10465 10465 10464 10462 10461 10459 10458 10455 10452 10448 10444 10441 10437 10435 10432 10428 10425 10422 10419 10416
10641 10639 10637 10634 10631 10629 10625 10622 10619 10615 10611 10606 10602 10597 10593 10587 10581 10574 10566 10559 10553 10548 10544 10541 10538 10535 10532 10530 10528 10526 10524 10523 10520 10518 10516 10514 10512 10509 10507 10504 10502 10500 10498 10496 10494 10492 10490 10488 10485 10482 10480 10477 10475 10474 10473 10472 10471 10470 10469 10468 10467 10466 10466 10466 10465 10464 10464 10464 10463 10462 10462 10460 10459 10457 10456 10454 10450 10446 10442 10438 10435 10433 10430 10427 10424 10421 10418 10415
10638 10637 10635 10632 10629 10626 10623 10620 10617 10613 10609 10605 10600 10596 10592 10586 10580 10574 10567 10560 10554 10549 10544 10541 10538 10535 10532 10530 10528 10525 10524 10522 10520 10517 10515 10513 10511 10508 10506 10503 10501 10499 10497 10494 10492 10490 10488 10487 10485 10482 10480 10477 10475 10473 10471 10470 10469 10468 10467 10465 10464 10464 10464 10464 10463 10462 10461 10461 10461 10461 10460 10458 10457 10455 10454 10451 10448 10445 10442 10438 10435 10431 10428 10426 10423 10420 10417 10414
10636 10634 10632 10630 10627 10624 10621 10618 10615 10612 10608 10604 10600 10595 10591 10586 10580 10574 10568 10562 10555 10550 10545 10541 10538 10535 10532 10529 10527 10525 10523 10521 10519 10516 10514 10512 10510 10508 10505 10502 10500 10498 10496 10494 10491 10488 10485 10484 10483 10481 10479 10477 10474 10472 10470 10468 10466 10465 10463 10462 10462 10461 10461 10461 10460 10459 10458 10457 10458 10458 10458 10457 10455 10454 10452 10450 10448 10445 10442 10438 10435 10431 10428 10425 10422 10418 10415 10413
10633 10631 10630 10627 10625 10622 10619 10616 10614 10610 10607 10603 10599 10595 10591 10586 10581 10575 10570 10564 10557 10551 10546 10541 10538 10534 10531 10529 10526 10524 10522 10520 10518 10515 10513 10511 10509 10507 10504 10502 10499 10497 10495 10493 10490 10487 10484 10481 10478 10477 10476 10474 10472 10470 10468 10466 10464 10462 10461 10460 10459 10458 10457 10457 10456 10455 10455 10454 10454 10455 10455 10454 10453 10452 10451 10449 10447 10444 10441 10438 10435 10431 10428 10424 10420 10417 10414 10411
10630 10628 10626 10624 10622 10620 10617 10614 10612 10609 10605 10602 10598 10594 10590 10586 10582 10576 10571 10565 10559 10553 10547 10542 10538 10534 10531 10528 10525 10523 10521 10519 10517 10515 10513 10510 10508 10505 10503 10501 10499 10496 10494 10491 10489 10486 10483 10480 10477 10474 10472 10470 10469 10467 10465 10463 10462 10460 10458 10457 10456 10454 10454 10453 10452 10451 10451 10451 10451 10452 10452 10452 10451 10450 10449 10448 10446 10444 10441 10437 10434 10430 10427 10423 10419 10416 10413 10410
10627 10625 10623 10621 10619 10618 10615 10612 10610 10607 10604 10600 10597 10593 10589 10585 10581 10576 10571 10565 10560 10554 10549 10543 10538 10534 10531 10528 10525 10522 10520 10518 10516 10514 10511 10509 10507 10504 10502 10500 10497 10495 10492 10489 10487 10484 10482 10479 10476 10473 10470 10468 10466 10464 10462 10461 10459 10457 10455 10454 10453 10452 10451 10450 10448 10448 10448 10448 10449 10448 10448 10449 10449 10449 10448 10447 10445 10442 10439 10436 10432 10429 10425 10422 10419 10416 10413 10410
10623 10622 10620 10618 10616 10615 10613 10610 10607 10605 10602 10599 10595 10591 10588 10584 10580 10576 10571 10566 10561 10555 10550 10544 10539 10534 10530 10527 10524 10521 10519 10517 10515 10513 10510 10508 10506 10503 10501 10499 10496 10493 10490 10488 10485 10482 10480 10477 10475 10472 10469 10466 10464 10462 10460 10458 10456 10454 10453 10451 10450 10449 10448 10446 10445 10445 10445 10445 10445 10445 10445 10445 10446 10446 10446 10445 10443 10440 10437 10433 10430 10428 10425 10421 10419 10416 10413 10409
10620 10619 10617 10615 10613 10611 10610 10608 10605 10603 10600 10598 10594 10590 10586 10583 10579 10575 10571 10566 10562 10557 10551 10545 10540 10535 10531 10527 10524 10521 10518 10516 10514 10512 10509 10507 10504 10502 10500 10498 10495 10492 10489 10486 10483 10480 10478 10475 10473 10471 10468 10465 10462 10460 10458 10455 10453 10451 10450 10449 10448 10446 10445 10443 10441 10441 10441 10442 10442 10442 10442 10442 10442 10442 10442 10441 10439 10437 10435 10432 10428 10426 10424 10421 10419 10417 10413 10409